Time,TemperatureF,DewpointF,PressureIn,WindDirection,WindDirectionDegrees,WindSpeedMPH,WindSpeedGustMPH,Humidity,HourlyPrecipIn,Conditions,Clouds,dailyrainin,SoftwareType,DateUTC
2013-10-03 00:01:00,64.6,46.6,29.21,SSE,153,0.0,0.0,52,0.00,,---,0.00,VWS V14.01,2013-10-03 04:01:00,
2013-10-03 00:02:00,64.6,46.6,29.21,SSE,153,0.0,0.0,52,0.00,,---,0.00,VWS V14.01,2013-10-03 04:02:00,
2013-10-03 00:04:00,64.6,46.6,29.21,SSE,153,0.0,0.0,52,0.00,,---,0.00,VWS V14.01,2013-10-03 04:04:00,
2013-10-03 00:06:00,64.6,46.6,29.21,SSE,153,0.0,0.0,52,0.00,,---,0.00,VWS V14.01,2013-10-03 04:06:00,
2013-10-03 00:08:00,64.6,46.1,29.21,SSE,153,0.0,0.0,51,0.00,,---,0.00,VWS V14.01,2013-10-03 04:08:00,
2013-10-03 00:13:00,64.6,45.5,29.21,SSE,153,0.0,0.0,50,0.00,,---,0.00,VWS V14.01,2013-10-03 04:13:00,
2013-10-03 00:14:00,64.6,45.5,29.21,SSE,152,0.0,0.0,50,0.00,,---,0.00,VWS V14.01,2013-10-03 04:14:00,
2013-10-03 00:19:00,64.8,45.2,29.21,SSE,152,0.0,0.0,49,0.00,,---,0.00,VWS V14.01,2013-10-03 04:19:00,
2013-10-03 00:24:00,64.8,44.1,29.21,SSE,152,0.0,0.0,47,0.00,,---,0.00,VWS V14.01,2013-10-03 04:24:00,
2013-10-03 00:29:00,64.8,43.5,29.21,SSE,152,0.0,0.0,46,0.00,,---,0.00,VWS V14.01,2013-10-03 04:29:00,
2013-10-03 00:34:00,64.8,43.5,29.21,SSE,153,0.0,0.0,46,0.00,,---,0.00,VWS V14.01,2013-10-03 04:34:00,
2013-10-03 00:39:00,64.6,43.4,29.21,SSE,153,0.0,0.0,46,0.00,,---,0.00,VWS V14.01,2013-10-03 04:39:00,
2013-10-03 00:44:00,64.4,43.8,29.21,SSE,153,0.0,0.0,47,0.00,,---,0.00,VWS V14.01,2013-10-03 04:44:00,
2013-10-03 00:49:00,64.2,44.1,29.21,SSE,152,0.0,0.0,48,0.00,,---,0.00,VWS V14.01,2013-10-03 04:49:00,
2013-10-03 00:54:00,64.0,44.5,29.21,SSE,152,0.0,0.0,49,0.00,,---,0.00,VWS V14.01,2013-10-03 04:54:00,
2013-10-03 00:59:00,63.9,44.3,29.21,NW,323,0.0,4.0,49,0.00,,---,0.00,VWS V14.01,2013-10-03 04:59:00,
2013-10-03 01:04:00,63.7,44.7,29.21,NW,324,0.0,0.0,50,0.00,,---,0.00,VWS V14.01,2013-10-03 05:04:00,
2013-10-03 01:09:00,63.5,45.6,29.21,NW,323,0.0,0.0,52,0.00,,---,0.00,VWS V14.01,2013-10-03 05:09:00,
2013-10-03 01:14:00,63.1,46.2,29.21,NW,323,0.0,0.0,54,0.00,,---,0.00,VWS V14.01,2013-10-03 05:14:00,
2013-10-03 01:19:00,63.0,46.1,29.21,NW,324,0.0,0.0,54,0.00,,---,0.00,VWS V14.01,2013-10-03 05:19:00,
2013-10-03 01:24:00,62.8,46.4,29.21,NW,324,0.0,0.0,55,0.00,,---,0.00,VWS V14.01,2013-10-03 05:24:00,
2013-10-03 01:29:00,62.8,46.9,29.21,NW,323,0.0,0.0,56,0.00,,---,0.00,VWS V14.01,2013-10-03 05:29:00,
2013-10-03 01:34:00,62.6,47.2,29.23,NW,323,0.0,0.0,57,0.00,,---,0.00,VWS V14.01,2013-10-03 05:34:00,
2013-10-03 01:39:00,62.6,47.6,29.23,NW,324,0.0,0.0,58,0.00,,---,0.00,VWS V14.01,2013-10-03 05:39:00,
2013-10-03 01:44:00,62.6,47.6,29.23,NW,323,0.0,0.0,58,0.00,,---,0.00,VWS V14.01,2013-10-03 05:44:00,
2013-10-03 01:49:00,62.4,47.9,29.23,NW,323,0.0,0.0,59,0.00,,---,0.00,VWS V14.01,2013-10-03 05:49:00,
2013-10-03 01:54:00,62.2,48.2,29.23,NW,324,0.0,0.0,60,0.00,,---,0.00,VWS V14.01,2013-10-03 05:54:00,
2013-10-03 01:59:00,62.1,48.0,29.23,NW,324,0.0,0.0,60,0.00,,---,0.00,VWS V14.01,2013-10-03 05:59:00,
2013-10-03 02:04:00,62.1,48.9,29.23,NW,323,0.0,0.0,62,0.00,,---,0.00,VWS V14.01,2013-10-03 06:04:00,
2013-10-03 02:09:00,61.9,48.7,29.23,NW,323,0.0,0.0,62,0.00,,---,0.00,VWS V14.01,2013-10-03 06:09:00,
2013-10-03 02:14:00,61.9,49.2,29.23,NW,324,0.0,0.0,63,0.00,,---,0.00,VWS V14.01,2013-10-03 06:14:00,
2013-10-03 02:19:00,61.9,49.2,29.23,NW,323,0.0,0.0,63,0.00,,---,0.00,VWS V14.01,2013-10-03 06:19:00,
2013-10-03 02:24:00,61.7,48.6,29.23,NW,323,0.0,0.0,62,0.00,,---,0.00,VWS V14.01,2013-10-03 06:24:00,
2013-10-03 02:30:00,61.5,48.8,29.23,NW,323,0.0,0.0,63,0.00,,---,0.00,VWS V14.01,2013-10-03 06:30:00,
2013-10-03 02:35:00,61.3,48.7,29.23,NW,323,0.0,0.0,63,0.00,,---,0.00,VWS V14.01,2013-10-03 06:35:00,
2013-10-03 02:40:00,61.2,48.9,29.23,NW,323,0.0,0.0,64,0.00,,---,0.00,VWS V14.01,2013-10-03 06:40:00,
2013-10-03 02:45:00,61.0,49.2,29.23,NW,323,0.0,0.0,65,0.00,,---,0.00,VWS V14.01,2013-10-03 06:45:00,
2013-10-03 02:50:00,60.8,49.4,29.23,NW,323,0.0,0.0,66,0.00,,---,0.00,VWS V14.01,2013-10-03 06:50:00,
2013-10-03 02:55:00,60.8,49.4,29.23,NW,323,0.0,0.0,66,0.00,,---,0.00,VWS V14.01,2013-10-03 06:55:00,
2013-10-03 03:00:00,60.6,48.8,29.23,NW,323,0.0,0.0,65,0.00,,---,0.00,VWS V14.01,2013-10-03 07:00:00,
2013-10-03 03:06:00,60.4,48.6,29.23,NW,323,0.0,0.0,65,0.00,,---,0.00,VWS V14.01,2013-10-03 07:06:00,
2013-10-03 03:11:00,60.1,47.9,29.23,NW,323,0.0,0.0,64,0.00,,---,0.00,VWS V14.01,2013-10-03 07:11:00,
2013-10-03 03:16:00,60.3,47.6,29.23,NW,323,0.0,0.0,63,0.00,,---,0.00,VWS V14.01,2013-10-03 07:16:00,
2013-10-03 03:21:00,60.3,47.2,29.23,NW,323,0.0,0.0,62,0.00,,---,0.00,VWS V14.01,2013-10-03 07:21:00,
2013-10-03 03:26:00,60.4,47.4,29.23,NW,323,0.0,0.0,62,0.00,,---,0.00,VWS V14.01,2013-10-03 07:26:00,
2013-10-03 03:31:00,60.4,46.5,29.23,NW,323,0.0,0.0,60,0.00,,---,0.00,VWS V14.01,2013-10-03 07:31:00,
2013-10-03 03:36:00,60.6,46.2,29.23,NW,323,0.0,0.0,59,0.00,,---,0.00,VWS V14.01,2013-10-03 07:36:00,
2013-10-03 03:41:00,60.6,44.8,29.23,NW,323,0.0,0.0,56,0.00,,---,0.00,VWS V14.01,2013-10-03 07:41:00,
2013-10-03 03:46:00,60.8,44.1,29.23,NW,324,0.0,0.0,54,0.00,,---,0.00,VWS V14.01,2013-10-03 07:46:00,
2013-10-03 03:51:00,60.8,43.1,29.23,NW,323,0.0,0.0,52,0.00,,---,0.00,VWS V14.01,2013-10-03 07:51:00,
2013-10-03 03:56:00,60.6,41.4,29.23,NW,323,0.0,0.0,49,0.00,,---,0.00,VWS V14.01,2013-10-03 07:56:00,
2013-10-03 04:01:00,60.6,40.8,29.23,NW,323,0.0,0.0,48,0.00,,---,0.00,VWS V14.01,2013-10-03 08:01:00,
2013-10-03 04:06:00,60.6,40.8,29.23,NW,323,0.0,0.0,48,0.00,,---,0.00,VWS V14.01,2013-10-03 08:06:00,
2013-10-03 04:11:00,60.4,40.7,29.23,NW,323,0.0,0.0,48,0.00,,---,0.00,VWS V14.01,2013-10-03 08:11:00,
2013-10-03 04:16:00,60.4,40.7,29.23,NW,323,0.0,0.0,48,0.00,,---,0.00,VWS V14.01,2013-10-03 08:16:00,
2013-10-03 04:21:00,60.3,40.0,29.23,NW,323,0.0,0.0,47,0.00,,---,0.00,VWS V14.01,2013-10-03 08:21:00,
2013-10-03 04:26:00,60.1,39.8,29.23,NW,323,0.0,0.0,47,0.00,,---,0.00,VWS V14.01,2013-10-03 08:26:00,
2013-10-03 04:31:00,59.9,39.6,29.23,NW,323,0.0,0.0,47,0.00,,---,0.00,VWS V14.01,2013-10-03 08:31:00,
2013-10-03 04:36:00,59.7,39.5,29.23,NW,323,0.0,0.0,47,0.00,,---,0.00,VWS V14.01,2013-10-03 08:36:00,
2013-10-03 04:41:00,59.5,39.3,29.23,NW,323,0.0,0.0,47,0.00,,---,0.00,VWS V14.01,2013-10-03 08:41:00,
2013-10-03 04:46:00,59.4,39.7,29.23,NW,323,0.0,0.0,48,0.00,,---,0.00,VWS V14.01,2013-10-03 08:46:00,
2013-10-03 04:51:00,59.2,39.5,29.23,NW,323,0.0,0.0,48,0.00,,---,0.00,VWS V14.01,2013-10-03 08:51:00,
2013-10-03 04:56:00,58.8,39.7,29.23,NW,323,0.0,0.0,49,0.00,,---,0.00,VWS V14.01,2013-10-03 08:56:00,
2013-10-03 05:01:00,58.5,39.9,29.23,NW,323,0.0,0.0,50,0.00,,---,0.00,VWS V14.01,2013-10-03 09:01:00,
2013-10-03 05:06:00,58.3,39.7,29.23,NW,323,0.0,0.0,50,0.00,,---,0.00,VWS V14.01,2013-10-03 09:06:00,
2013-10-03 05:11:00,58.3,40.2,29.23,NW,323,0.0,0.0,51,0.00,,---,0.00,VWS V14.01,2013-10-03 09:11:00,
2013-10-03 05:16:00,58.5,40.9,29.23,NW,323,0.0,0.0,52,0.00,,---,0.00,VWS V14.01,2013-10-03 09:16:00,
2013-10-03 05:21:00,58.6,41.1,29.23,NW,323,0.0,0.0,52,0.00,,---,0.00,VWS V14.01,2013-10-03 09:21:00,
2013-10-03 05:26:00,58.8,40.8,29.23,NW,323,0.0,0.0,51,0.00,,---,0.00,VWS V14.01,2013-10-03 09:26:00,
2013-10-03 05:31:00,58.8,40.2,29.26,NW,323,0.0,0.0,50,0.00,,---,0.00,VWS V14.01,2013-10-03 09:31:00,
2013-10-03 05:36:00,58.8,39.2,29.26,NW,323,0.0,0.0,48,0.00,,---,0.00,VWS V14.01,2013-10-03 09:36:00,
2013-10-03 05:41:00,59.0,38.8,29.26,NW,323,0.0,0.0,47,0.00,,---,0.00,VWS V14.01,2013-10-03 09:41:00,
2013-10-03 05:46:00,59.0,38.8,29.26,NW,323,0.0,0.0,47,0.00,,---,0.00,VWS V14.01,2013-10-03 09:46:00,
2013-10-03 05:51:00,59.0,38.3,29.26,NW,323,0.0,0.0,46,0.00,,---,0.00,VWS V14.01,2013-10-03 09:51:00,
2013-10-03 05:56:00,59.2,37.9,29.26,NW,323,0.0,0.0,45,0.00,,---,0.00,VWS V14.01,2013-10-03 09:56:00,
2013-10-03 06:01:00,59.2,37.3,29.26,NW,323,0.0,0.0,44,0.00,,---,0.00,VWS V14.01,2013-10-03 10:01:00,
2013-10-03 06:06:00,59.0,37.1,29.26,NW,323,0.0,0.0,44,0.00,,---,0.00,VWS V14.01,2013-10-03 10:06:00,
2013-10-03 06:11:00,59.0,37.1,29.26,NW,323,0.0,0.0,44,0.00,,---,0.00,VWS V14.01,2013-10-03 10:11:00,
2013-10-03 06:16:00,58.8,37.0,29.26,NW,323,0.0,0.0,44,0.00,,---,0.00,VWS V14.01,2013-10-03 10:16:00,
2013-10-03 06:21:00,58.8,37.5,29.26,NW,324,0.0,0.0,45,0.00,,---,0.00,VWS V14.01,2013-10-03 10:21:00,
2013-10-03 06:26:00,58.5,37.2,29.26,NW,323,0.0,0.0,45,0.00,,---,0.00,VWS V14.01,2013-10-03 10:26:00,
2013-10-03 06:31:00,58.1,37.5,29.26,NW,323,0.0,0.0,46,0.00,,---,0.00,VWS V14.01,2013-10-03 10:31:00,
2013-10-03 06:36:00,57.9,38.4,29.26,NW,323,0.0,0.0,48,0.00,,---,0.00,VWS V14.01,2013-10-03 10:36:00,
2013-10-03 06:41:00,57.7,38.7,29.26,NW,323,0.0,0.0,49,0.00,,---,0.00,VWS V14.01,2013-10-03 10:41:00,
2013-10-03 06:46:00,57.7,38.7,29.26,NW,323,0.0,0.0,49,0.00,,---,0.00,VWS V14.01,2013-10-03 10:46:00,
2013-10-03 06:51:00,57.6,38.6,29.26,NW,323,0.0,0.0,49,0.00,,---,0.00,VWS V14.01,2013-10-03 10:51:00,
2013-10-03 06:56:00,57.4,38.9,29.26,NW,323,0.0,0.0,50,0.00,,---,0.00,VWS V14.01,2013-10-03 10:56:00,
2013-10-03 07:01:00,57.2,39.2,29.26,NW,324,0.0,0.0,51,0.00,,---,0.00,VWS V14.01,2013-10-03 11:01:00,
2013-10-03 07:06:00,57.2,39.8,29.26,NW,323,0.0,0.0,52,0.00,,---,0.00,VWS V14.01,2013-10-03 11:06:00,
2013-10-03 07:11:00,57.4,39.9,29.26,NW,323,0.0,0.0,52,0.00,,---,0.00,VWS V14.01,2013-10-03 11:11:00,
2013-10-03 07:16:00,57.2,40.2,29.29,NW,323,0.0,0.0,53,0.00,,---,0.00,VWS V14.01,2013-10-03 11:16:00,
2013-10-03 07:21:00,57.4,40.9,29.29,NW,323,0.0,0.0,54,0.00,,---,0.00,VWS V14.01,2013-10-03 11:21:00,
2013-10-03 07:26:00,57.6,41.5,29.29,NW,323,0.0,0.0,55,0.00,,---,0.00,VWS V14.01,2013-10-03 11:26:00,
2013-10-03 07:31:00,57.7,41.7,29.29,NW,323,0.0,0.0,55,0.00,,---,0.00,VWS V14.01,2013-10-03 11:31:00,
2013-10-03 07:36:00,57.7,42.2,29.29,NW,323,0.0,0.0,56,0.00,,---,0.00,VWS V14.01,2013-10-03 11:36:00,
2013-10-03 07:41:00,57.9,42.8,29.29,NW,323,0.0,0.0,57,0.00,,---,0.00,VWS V14.01,2013-10-03 11:41:00,
2013-10-03 07:46:00,58.3,43.1,29.29,NW,323,0.0,0.0,57,0.00,,---,0.00,VWS V14.01,2013-10-03 11:46:00,
2013-10-03 07:51:00,58.6,43.9,29.29,NW,323,0.0,0.0,58,0.00,,---,0.00,VWS V14.01,2013-10-03 11:51:00,
2013-10-03 07:56:00,59.0,44.3,29.29,NW,323,0.0,0.0,58,0.00,,---,0.00,VWS V14.01,2013-10-03 11:56:00,
2013-10-03 08:01:00,59.4,44.6,29.29,NW,324,0.0,0.0,58,0.00,,---,0.00,VWS V14.01,2013-10-03 12:01:00,
2013-10-03 08:06:00,59.9,45.5,29.29,NW,323,0.0,0.0,59,0.00,,---,0.00,VWS V14.01,2013-10-03 12:06:00,
2013-10-03 08:11:00,59.9,43.7,29.29,NW,323,0.0,0.0,55,0.00,,---,0.00,VWS V14.01,2013-10-03 12:11:00,
2013-10-03 08:16:00,60.4,41.2,29.29,NW,323,0.0,0.0,49,0.00,,---,0.00,VWS V14.01,2013-10-03 12:16:00,
2013-10-03 08:21:00,60.8,39.9,29.29,NW,323,0.0,0.0,46,0.00,,---,0.00,VWS V14.01,2013-10-03 12:21:00,
2013-10-03 08:26:00,61.2,39.7,29.29,NW,323,0.0,0.0,45,0.00,,---,0.00,VWS V14.01,2013-10-03 12:26:00,
2013-10-03 08:31:00,61.5,39.4,29.29,NW,323,0.0,0.0,44,0.00,,---,0.00,VWS V14.01,2013-10-03 12:31:00,
2013-10-03 08:36:00,62.1,39.3,29.29,NW,323,0.0,0.0,43,0.00,,---,0.00,VWS V14.01,2013-10-03 12:36:00,
2013-10-03 08:41:00,62.2,38.3,29.29,NW,323,0.0,0.0,41,0.00,,---,0.00,VWS V14.01,2013-10-03 12:41:00,
2013-10-03 08:46:00,62.6,38.6,29.29,NW,323,0.0,0.0,41,0.00,,---,0.00,VWS V14.01,2013-10-03 12:46:00,
2013-10-03 08:51:00,63.1,39.1,29.29,NW,323,0.0,0.0,41,0.00,,---,0.00,VWS V14.01,2013-10-03 12:51:00,
2013-10-03 08:56:00,63.3,38.0,29.29,NW,323,0.0,0.0,39,0.00,,---,0.00,VWS V14.01,2013-10-03 12:56:00,
2013-10-03 09:01:00,63.9,38.5,29.29,NW,323,0.0,0.0,39,0.00,,---,0.00,VWS V14.01,2013-10-03 13:01:00,
2013-10-03 09:06:00,63.9,37.8,29.29,NW,323,0.0,0.0,38,0.00,,---,0.00,VWS V14.01,2013-10-03 13:06:00,
2013-10-03 09:11:00,64.2,38.8,29.29,NW,323,0.0,0.0,39,0.00,,---,0.00,VWS V14.01,2013-10-03 13:11:00,
2013-10-03 09:16:00,64.8,39.2,29.29,NW,323,0.0,0.0,39,0.00,,---,0.00,VWS V14.01,2013-10-03 13:16:00,
2013-10-03 09:21:00,65.1,38.9,29.29,NW,323,0.0,0.0,38,0.00,,---,0.00,VWS V14.01,2013-10-03 13:21:00,
2013-10-03 09:26:00,65.5,38.5,29.29,NW,323,0.0,0.0,37,0.00,,---,0.00,VWS V14.01,2013-10-03 13:26:00,
2013-10-03 09:31:00,65.5,37.8,29.32,NW,323,0.0,0.0,36,0.00,,---,0.00,VWS V14.01,2013-10-03 13:31:00,
2013-10-03 09:36:00,65.8,38.2,29.32,NW,323,0.0,0.0,36,0.00,,---,0.00,VWS V14.01,2013-10-03 13:36:00,
2013-10-03 09:41:00,66.2,37.8,29.32,ESE,110,0.0,0.0,35,0.00,,---,0.00,VWS V14.01,2013-10-03 13:41:00,
2013-10-03 09:46:00,66.7,36.8,29.32,ESE,109,0.0,0.0,33,0.00,,---,0.00,VWS V14.01,2013-10-03 13:46:00,
2013-10-03 09:51:00,67.1,37.1,29.32,East,85,0.0,2.7,33,0.00,,---,0.00,VWS V14.01,2013-10-03 13:51:00,
2013-10-03 09:56:00,67.5,36.6,29.32,East,85,0.0,0.0,32,0.00,,---,0.00,VWS V14.01,2013-10-03 13:56:00,
2013-10-03 10:01:00,67.6,36.8,29.32,East,85,0.0,0.0,32,0.00,,---,0.00,VWS V14.01,2013-10-03 14:01:00,
2013-10-03 10:06:00,67.8,36.1,29.32,NNE,21,0.0,0.0,31,0.00,,---,0.00,VWS V14.01,2013-10-03 14:06:00,
2013-10-03 10:11:00,68.0,33.7,29.32,ENE,63,0.0,0.0,28,0.00,,---,0.00,VWS V14.01,2013-10-03 14:11:00,
2013-10-03 10:16:00,68.0,32.8,29.32,ENE,63,0.0,0.0,27,0.00,,---,0.00,VWS V14.01,2013-10-03 14:16:00,
2013-10-03 10:21:00,68.0,33.7,29.32,ENE,63,0.0,0.0,28,0.00,,---,0.00,VWS V14.01,2013-10-03 14:21:00,
2013-10-03 10:26:00,68.4,34.9,29.32,ENE,63,0.0,0.0,29,0.00,,---,0.00,VWS V14.01,2013-10-03 14:26:00,
2013-10-03 10:31:00,68.4,37.4,29.32,ENE,64,0.0,0.0,32,0.00,,---,0.00,VWS V14.01,2013-10-03 14:31:00,
2013-10-03 10:36:00,68.4,36.6,29.32,ENE,64,0.0,0.0,31,0.00,,---,0.00,VWS V14.01,2013-10-03 14:36:00,
2013-10-03 10:41:00,68.4,33.1,29.32,SSE,149,0.0,0.0,27,0.00,,---,0.00,VWS V14.01,2013-10-03 14:41:00,
2013-10-03 10:46:00,68.5,33.3,29.32,SSE,149,0.0,0.0,27,0.00,,---,0.00,VWS V14.01,2013-10-03 14:46:00,
2013-10-03 10:51:00,68.7,33.4,29.32,SSE,149,0.0,0.0,27,0.00,,---,0.00,VWS V14.01,2013-10-03 14:51:00,
2013-10-03 10:56:00,68.9,34.5,29.32,SSE,148,0.0,0.0,28,0.00,,---,0.00,VWS V14.01,2013-10-03 14:56:00,
2013-10-03 11:01:00,68.9,35.4,29.29,SSE,149,0.0,0.0,29,0.00,,---,0.00,VWS V14.01,2013-10-03 15:01:00,
2013-10-03 11:06:00,69.1,34.6,29.29,ENE,69,0.0,0.0,28,0.00,,---,0.00,VWS V14.01,2013-10-03 15:06:00,
2013-10-03 11:11:00,69.3,35.7,29.29,ESE,102,0.0,0.0,29,0.00,,---,0.00,VWS V14.01,2013-10-03 15:11:00,
2013-10-03 11:16:00,69.4,38.3,29.29,ENE,78,0.0,0.0,32,0.00,,---,0.00,VWS V14.01,2013-10-03 15:16:00,
2013-10-03 11:21:00,69.6,36.8,29.29,NE,54,0.0,0.0,30,0.00,,---,0.00,VWS V14.01,2013-10-03 15:21:00,
2013-10-03 11:26:00,69.6,34.2,29.29,ENE,71,0.0,0.0,27,0.00,,---,0.00,VWS V14.01,2013-10-03 15:26:00,
2013-10-03 11:31:00,69.6,34.2,29.29,East,90,0.0,0.0,27,0.00,,---,0.00,VWS V14.01,2013-10-03 15:31:00,
2013-10-03 11:36:00,69.8,35.3,29.29,East,85,0.0,0.0,28,0.00,,---,0.00,VWS V14.01,2013-10-03 15:36:00,
2013-10-03 11:41:00,69.8,35.3,29.29,ESE,102,0.0,3.6,28,0.00,,---,0.00,VWS V14.01,2013-10-03 15:41:00,
2013-10-03 11:46:00,70.0,36.3,29.29,ENE,62,0.0,4.0,29,0.00,,---,0.00,VWS V14.01,2013-10-03 15:46:00,
2013-10-03 11:51:00,70.0,36.3,29.29,NE,39,0.0,0.0,29,0.00,,---,0.00,VWS V14.01,2013-10-03 15:51:00,
2013-10-03 11:56:00,70.0,38.8,29.29,SE,124,0.0,0.0,32,0.00,,---,0.00,VWS V14.01,2013-10-03 15:56:00,
2013-10-03 12:01:00,70.0,38.8,29.29,ESE,118,0.0,0.0,32,0.00,,---,0.00,VWS V14.01,2013-10-03 16:01:00,
2013-10-03 12:06:00,70.0,38.8,29.29,ESE,114,0.0,0.0,32,0.00,,---,0.00,VWS V14.01,2013-10-03 16:06:00,
2013-10-03 12:11:00,70.2,39.0,29.29,SE,136,0.0,0.0,32,0.00,,---,0.00,VWS V14.01,2013-10-03 16:11:00,
2013-10-03 12:16:00,70.2,39.0,29.29,ESE,103,3.6,4.0,32,0.00,,---,0.00,VWS V14.01,2013-10-03 16:16:00,
2013-10-03 12:21:00,70.2,39.0,29.29,East,98,0.0,6.3,32,0.00,,---,0.00,VWS V14.01,2013-10-03 16:21:00,
2013-10-03 12:26:00,70.3,34.8,29.29,East,97,0.0,3.1,27,0.00,,---,0.00,VWS V14.01,2013-10-03 16:26:00,
2013-10-03 12:31:00,70.5,36.8,29.29,East,97,0.0,0.0,29,0.00,,---,0.00,VWS V14.01,2013-10-03 16:31:00,
2013-10-03 12:36:00,70.5,37.6,29.29,East,97,0.0,0.0,30,0.00,,---,0.00,VWS V14.01,2013-10-03 16:36:00,
2013-10-03 12:41:00,70.3,33.9,29.29,East,97,0.0,0.0,26,0.00,,---,0.00,VWS V14.01,2013-10-03 16:41:00,
2013-10-03 12:46:00,70.3,32.9,29.26,East,97,0.0,0.0,25,0.00,,---,0.00,VWS V14.01,2013-10-03 16:46:00,
2013-10-03 12:51:00,70.3,31.9,29.26,East,97,0.0,0.0,24,0.00,,---,0.00,VWS V14.01,2013-10-03 16:51:00,
2013-10-03 12:56:00,70.3,30.8,29.26,NE,39,3.1,3.1,23,0.00,,---,0.00,VWS V14.01,2013-10-03 16:56:00,
2013-10-03 13:01:00,70.3,29.7,29.26,SE,128,0.0,0.0,22,0.00,,---,0.00,VWS V14.01,2013-10-03 17:01:00,
2013-10-03 13:06:00,70.3,30.8,29.26,SE,128,0.0,0.0,23,0.00,,---,0.00,VWS V14.01,2013-10-03 17:06:00,
2013-10-03 13:11:00,70.3,30.8,29.26,SE,128,0.0,0.0,23,0.00,,---,0.00,VWS V14.01,2013-10-03 17:11:00,
2013-10-03 13:16:00,70.3,30.8,29.26,SE,128,0.0,0.0,23,0.00,,---,0.00,VWS V14.01,2013-10-03 17:16:00,
2013-10-03 13:21:00,70.3,30.8,29.26,NE,42,0.0,0.0,23,0.00,,---,0.00,VWS V14.01,2013-10-03 17:21:00,
2013-10-03 13:26:00,70.3,30.8,29.26,East,87,0.0,2.7,23,0.00,,---,0.00,VWS V14.01,2013-10-03 17:26:00,
2013-10-03 13:31:00,70.3,30.8,29.26,East,87,0.0,0.0,23,0.00,,---,0.00,VWS V14.01,2013-10-03 17:31:00,
2013-10-03 13:36:00,70.5,31.0,29.26,East,87,0.0,0.0,23,0.00,,---,0.00,VWS V14.01,2013-10-03 17:36:00,
2013-10-03 13:41:00,70.7,31.1,29.26,East,87,0.0,0.0,23,0.00,,---,0.00,VWS V14.01,2013-10-03 17:41:00,
2013-10-03 13:46:00,70.7,31.1,29.26,ENE,78,0.0,0.0,23,0.00,,---,0.00,VWS V14.01,2013-10-03 17:46:00,
2013-10-03 13:51:00,70.5,31.0,29.26,ENE,78,0.0,0.0,23,0.00,,---,0.00,VWS V14.01,2013-10-03 17:51:00,
2013-10-03 13:56:00,70.5,31.0,29.26,ENE,78,0.0,0.0,23,0.00,,---,0.00,VWS V14.01,2013-10-03 17:56:00,
2013-10-03 14:01:00,70.5,29.9,29.26,ENE,78,0.0,0.0,22,0.00,,---,0.00,VWS V14.01,2013-10-03 18:01:00,
2013-10-03 14:06:00,70.3,29.7,29.26,East,80,0.0,0.0,22,0.00,,---,0.00,VWS V14.01,2013-10-03 18:06:00,
2013-10-03 14:11:00,70.5,29.9,29.26,NE,47,0.0,0.0,22,0.00,,---,0.00,VWS V14.01,2013-10-03 18:11:00,
2013-10-03 14:16:00,70.5,31.0,29.23,NE,47,0.0,0.0,23,0.00,,---,0.00,VWS V14.01,2013-10-03 18:16:00,
2013-10-03 14:21:00,70.5,31.0,29.23,NE,50,0.0,3.6,23,0.00,,---,0.00,VWS V14.01,2013-10-03 18:21:00,
2013-10-03 14:26:00,70.7,32.2,29.23,SSE,164,0.0,0.0,24,0.00,,---,0.00,VWS V14.01,2013-10-03 18:26:00,
2013-10-03 14:31:00,70.7,31.1,29.23,ESE,116,0.0,0.0,23,0.00,,---,0.00,VWS V14.01,2013-10-03 18:31:00,
2013-10-03 14:36:00,70.7,32.2,29.23,SSW,207,0.0,3.6,24,0.00,,---,0.00,VWS V14.01,2013-10-03 18:36:00,
2013-10-03 14:41:00,70.5,32.0,29.23,SSW,207,0.0,0.0,24,0.00,,---,0.00,VWS V14.01,2013-10-03 18:41:00,
2013-10-03 14:46:00,70.5,33.0,29.23,South,191,0.0,0.0,25,0.00,,---,0.00,VWS V14.01,2013-10-03 18:46:00,
2013-10-03 14:51:00,70.5,33.0,29.23,SSE,160,0.0,0.0,25,0.00,,---,0.00,VWS V14.01,2013-10-03 18:51:00,
2013-10-03 14:56:00,70.5,34.0,29.23,SE,130,0.0,0.0,26,0.00,,---,0.00,VWS V14.01,2013-10-03 18:56:00,
2013-10-03 15:01:00,70.5,34.0,29.23,SE,130,0.0,0.0,26,0.00,,---,0.00,VWS V14.01,2013-10-03 19:01:00,
2013-10-03 15:06:00,70.5,33.0,29.23,NE,56,0.0,0.0,25,0.00,,---,0.00,VWS V14.01,2013-10-03 19:06:00,
2013-10-03 15:11:00,70.5,33.0,29.23,NE,56,0.0,0.0,25,0.00,,---,0.00,VWS V14.01,2013-10-03 19:11:00,
2013-10-03 15:16:00,70.3,32.9,29.23,NE,56,0.0,0.0,25,0.00,,---,0.00,VWS V14.01,2013-10-03 19:16:00,
2013-10-03 15:21:00,70.3,32.9,29.23,NE,56,0.0,0.0,25,0.00,,---,0.00,VWS V14.01,2013-10-03 19:21:00,
2013-10-03 15:26:00,70.3,32.9,29.23,NE,56,0.0,0.0,25,0.00,,---,0.00,VWS V14.01,2013-10-03 19:26:00,
2013-10-03 15:31:00,70.3,32.9,29.23,NE,56,0.0,0.0,25,0.00,,---,0.00,VWS V14.01,2013-10-03 19:31:00,
2013-10-03 15:36:00,70.2,33.7,29.23,NE,56,0.0,0.0,26,0.00,,---,0.00,VWS V14.01,2013-10-03 19:36:00,
2013-10-03 15:41:00,70.0,33.5,29.23,NE,56,0.0,0.0,26,0.00,,---,0.00,VWS V14.01,2013-10-03 19:41:00,
2013-10-03 15:46:00,70.0,35.4,29.23,NE,56,0.0,0.0,28,0.00,,---,0.00,VWS V14.01,2013-10-03 19:46:00,
2013-10-03 15:51:00,70.0,36.3,29.23,NE,56,0.0,0.0,29,0.00,,---,0.00,VWS V14.01,2013-10-03 19:51:00,
2013-10-03 15:56:00,70.0,38.8,29.23,NE,56,0.0,0.0,32,0.00,,---,0.00,VWS V14.01,2013-10-03 19:56:00,
2013-10-03 16:01:00,70.0,38.8,29.23,NE,56,0.0,0.0,32,0.00,,---,0.00,VWS V14.01,2013-10-03 20:01:00,
2013-10-03 16:06:00,70.0,38.8,29.23,NE,56,0.0,0.0,32,0.00,,---,0.00,VWS V14.01,2013-10-03 20:06:00,
2013-10-03 16:11:00,70.0,38.8,29.23,NE,56,0.0,0.0,32,0.00,,---,0.00,VWS V14.01,2013-10-03 20:11:00,
2013-10-03 16:16:00,69.8,38.6,29.23,NE,56,0.0,0.0,32,0.00,,---,0.00,VWS V14.01,2013-10-03 20:16:00,
2013-10-03 16:21:00,69.8,39.4,29.23,NE,56,0.0,0.0,33,0.00,,---,0.00,VWS V14.01,2013-10-03 20:21:00,
2013-10-03 16:26:00,69.8,39.4,29.23,NE,56,0.0,0.0,33,0.00,,---,0.00,VWS V14.01,2013-10-03 20:26:00,
2013-10-03 16:31:00,69.6,39.3,29.23,NE,56,0.0,0.0,33,0.00,,---,0.00,VWS V14.01,2013-10-03 20:31:00,
2013-10-03 16:36:00,69.6,39.3,29.23,NE,56,0.0,0.0,33,0.00,,---,0.00,VWS V14.01,2013-10-03 20:36:00,
2013-10-03 16:41:00,69.4,39.1,29.23,NE,56,0.0,0.0,33,0.00,,---,0.00,VWS V14.01,2013-10-03 20:41:00,
2013-10-03 16:46:00,69.4,39.1,29.23,NE,56,0.0,0.0,33,0.00,,---,0.00,VWS V14.01,2013-10-03 20:46:00,
2013-10-03 16:51:00,69.4,39.1,29.23,NE,56,0.0,0.0,33,0.00,,---,0.00,VWS V14.01,2013-10-03 20:51:00,
2013-10-03 16:56:00,69.3,39.0,29.23,NE,56,0.0,0.0,33,0.00,,---,0.00,VWS V14.01,2013-10-03 20:56:00,
2013-10-03 17:01:00,69.1,38.8,29.23,NE,56,0.0,0.0,33,0.00,,---,0.00,VWS V14.01,2013-10-03 21:01:00,
2013-10-03 17:07:00,69.1,39.6,29.23,NE,56,0.0,0.0,34,0.00,,---,0.00,VWS V14.01,2013-10-03 21:07:00,
2013-10-03 17:12:00,68.9,38.6,29.23,NE,56,0.0,0.0,33,0.00,,---,0.00,VWS V14.01,2013-10-03 21:12:00,
2013-10-03 17:17:00,68.9,39.4,29.23,NE,56,0.0,0.0,34,0.00,,---,0.00,VWS V14.01,2013-10-03 21:17:00,
2013-10-03 17:22:00,68.7,39.2,29.23,NE,56,0.0,0.0,34,0.00,,---,0.00,VWS V14.01,2013-10-03 21:22:00,
2013-10-03 17:27:00,68.7,39.2,29.23,NE,56,0.0,0.0,34,0.00,,---,0.00,VWS V14.01,2013-10-03 21:27:00,
2013-10-03 17:32:00,68.5,38.3,29.23,NE,56,0.0,0.0,33,0.00,,---,0.00,VWS V14.01,2013-10-03 21:32:00,
2013-10-03 17:37:00,68.4,38.9,29.23,NE,56,0.0,0.0,34,0.00,,---,0.00,VWS V14.01,2013-10-03 21:37:00,
2013-10-03 17:42:00,68.2,38.8,29.23,NE,56,0.0,0.0,34,0.00,,---,0.00,VWS V14.01,2013-10-03 21:42:00,
2013-10-03 17:47:00,68.0,38.6,29.23,NE,56,0.0,0.0,34,0.00,,---,0.00,VWS V14.01,2013-10-03 21:47:00,
2013-10-03 17:52:00,67.8,38.5,29.23,NE,56,0.0,0.0,34,0.00,,---,0.00,VWS V14.01,2013-10-03 21:52:00,
2013-10-03 17:57:00,67.6,38.3,29.23,NE,56,0.0,0.0,34,0.00,,---,0.00,VWS V14.01,2013-10-03 21:57:00,
2013-10-03 18:02:00,67.5,38.1,29.23,NE,56,0.0,0.0,34,0.00,,---,0.00,VWS V14.01,2013-10-03 22:02:00,
2013-10-03 18:07:00,67.5,38.9,29.23,NE,56,0.0,0.0,35,0.00,,---,0.00,VWS V14.01,2013-10-03 22:07:00,
2013-10-03 18:12:00,67.3,38.7,29.23,NE,56,0.0,0.0,35,0.00,,---,0.00,VWS V14.01,2013-10-03 22:12:00,
2013-10-03 18:17:00,67.1,38.6,29.23,NE,56,0.0,0.0,35,0.00,,---,0.00,VWS V14.01,2013-10-03 22:17:00,
2013-10-03 18:22:00,67.1,38.6,29.23,NE,56,0.0,0.0,35,0.00,,---,0.00,VWS V14.01,2013-10-03 22:22:00,
2013-10-03 18:27:00,67.1,39.3,29.23,NE,56,0.0,0.0,36,0.00,,---,0.00,VWS V14.01,2013-10-03 22:27:00,
2013-10-03 18:32:00,66.9,39.1,29.23,NE,56,0.0,0.0,36,0.00,,---,0.00,VWS V14.01,2013-10-03 22:32:00,
2013-10-03 18:37:00,66.9,39.1,29.23,NE,56,0.0,0.0,36,0.00,,---,0.00,VWS V14.01,2013-10-03 22:37:00,
2013-10-03 18:42:00,66.9,39.1,29.23,NE,56,0.0,0.0,36,0.00,,---,0.00,VWS V14.01,2013-10-03 22:42:00,
2013-10-03 18:47:00,66.9,39.8,29.23,NE,56,0.0,0.0,37,0.00,,---,0.00,VWS V14.01,2013-10-03 22:47:00,
2013-10-03 18:52:00,66.9,39.8,29.23,NE,56,0.0,0.0,37,0.00,,---,0.00,VWS V14.01,2013-10-03 22:52:00,
2013-10-03 18:57:00,66.7,39.7,29.23,NE,56,0.0,0.0,37,0.00,,---,0.00,VWS V14.01,2013-10-03 22:57:00,
2013-10-03 19:02:00,66.7,39.7,29.23,NE,56,0.0,0.0,37,0.00,,---,0.00,VWS V14.01,2013-10-03 23:02:00,
2013-10-03 19:07:00,66.7,40.3,29.23,NE,56,0.0,0.0,38,0.00,,---,0.00,VWS V14.01,2013-10-03 23:07:00,
2013-10-03 19:12:00,66.6,40.2,29.23,NE,56,0.0,0.0,38,0.00,,---,0.00,VWS V14.01,2013-10-03 23:12:00,
2013-10-03 19:17:00,66.6,40.9,29.23,NE,56,0.0,0.0,39,0.00,,---,0.00,VWS V14.01,2013-10-03 23:17:00,
2013-10-03 19:22:00,66.6,40.9,29.23,NE,56,0.0,0.0,39,0.00,,---,0.00,VWS V14.01,2013-10-03 23:22:00,
2013-10-03 19:27:00,66.6,40.9,29.23,NE,56,0.0,0.0,39,0.00,,---,0.00,VWS V14.01,2013-10-03 23:27:00,
2013-10-03 19:32:00,66.6,40.9,29.23,NE,56,0.0,0.0,39,0.00,,---,0.00,VWS V14.01,2013-10-03 23:32:00,
2013-10-03 19:37:00,66.6,41.5,29.23,NE,56,0.0,0.0,40,0.00,,---,0.00,VWS V14.01,2013-10-03 23:37:00,
2013-10-03 19:42:00,66.6,41.5,29.23,NE,56,0.0,0.0,40,0.00,,---,0.00,VWS V14.01,2013-10-03 23:42:00,
2013-10-03 19:47:00,66.6,41.5,29.23,NE,56,0.0,0.0,40,0.00,,---,0.00,VWS V14.01,2013-10-03 23:47:00,
2013-10-03 19:52:00,66.6,41.5,29.23,NE,56,0.0,0.0,40,0.00,,---,0.00,VWS V14.01,2013-10-03 23:52:00,
2013-10-03 19:57:00,66.4,41.3,29.23,NE,56,0.0,0.0,40,0.00,,---,0.00,VWS V14.01,2013-10-03 23:57:00,
2013-10-03 20:02:00,66.4,42.0,29.23,NE,56,0.0,0.0,41,0.00,,---,0.00,VWS V14.01,2013-10-04 00:02:00,
2013-10-03 20:07:00,66.4,42.0,29.23,NE,56,0.0,0.0,41,0.00,,---,0.00,VWS V14.01,2013-10-04 00:07:00,
2013-10-03 20:12:00,66.4,42.6,29.23,NE,56,0.0,0.0,42,0.00,,---,0.00,VWS V14.01,2013-10-04 00:12:00,
2013-10-03 20:17:00,66.4,42.6,29.23,NE,56,0.0,0.0,42,0.00,,---,0.00,VWS V14.01,2013-10-04 00:17:00,
2013-10-03 20:22:00,66.2,42.5,29.23,NE,56,0.0,0.0,42,0.00,,---,0.00,VWS V14.01,2013-10-04 00:22:00,
2013-10-03 20:27:00,66.2,42.5,29.23,NE,56,0.0,0.0,42,0.00,,---,0.00,VWS V14.01,2013-10-04 00:27:00,
2013-10-03 20:32:00,66.2,42.5,29.23,NE,56,0.0,0.0,42,0.00,,---,0.00,VWS V14.01,2013-10-04 00:32:00,
2013-10-03 20:37:00,66.0,42.3,29.23,NE,56,0.0,0.0,42,0.00,,---,0.00,VWS V14.01,2013-10-04 00:37:00,
2013-10-03 20:42:00,66.0,42.9,29.23,NE,56,0.0,0.0,43,0.00,,---,0.00,VWS V14.01,2013-10-04 00:42:00,
2013-10-03 20:47:00,66.0,42.9,29.23,NE,56,0.0,0.0,43,0.00,,---,0.00,VWS V14.01,2013-10-04 00:47:00,
2013-10-03 20:52:00,66.0,42.9,29.23,NE,56,0.0,0.0,43,0.00,,---,0.00,VWS V14.01,2013-10-04 00:52:00,
2013-10-03 20:57:00,65.8,42.7,29.23,NE,56,0.0,0.0,43,0.00,,---,0.00,VWS V14.01,2013-10-04 00:57:00,
2013-10-03 21:02:00,65.8,42.7,29.23,NE,56,0.0,0.0,43,0.00,,---,0.00,VWS V14.01,2013-10-04 01:02:00,
2013-10-03 21:07:00,65.7,42.6,29.23,NE,56,0.0,0.0,43,0.00,,---,0.00,VWS V14.01,2013-10-04 01:07:00,
2013-10-03 21:12:00,65.7,43.2,29.23,NE,56,0.0,0.0,44,0.00,,---,0.00,VWS V14.01,2013-10-04 01:12:00,
2013-10-03 21:17:00,65.5,43.0,29.23,NE,56,0.0,0.0,44,0.00,,---,0.00,VWS V14.01,2013-10-04 01:17:00,
2013-10-03 21:22:00,65.5,43.0,29.23,NE,56,0.0,0.0,44,0.00,,---,0.00,VWS V14.01,2013-10-04 01:22:00,
2013-10-03 21:27:00,65.3,42.8,29.23,NE,56,0.0,0.0,44,0.00,,---,0.00,VWS V14.01,2013-10-04 01:27:00,
2013-10-03 21:32:00,65.3,43.4,29.26,NE,56,0.0,0.0,45,0.00,,---,0.00,VWS V14.01,2013-10-04 01:32:00,
2013-10-03 21:37:00,65.1,43.3,29.26,NE,56,0.0,0.0,45,0.00,,---,0.00,VWS V14.01,2013-10-04 01:37:00,
2013-10-03 21:42:00,64.9,43.1,29.26,NE,56,0.0,0.0,45,0.00,,---,0.00,VWS V14.01,2013-10-04 01:42:00,
2013-10-03 21:47:00,64.8,43.5,29.26,NE,56,0.0,0.0,46,0.00,,---,0.00,VWS V14.01,2013-10-04 01:47:00,
2013-10-03 21:52:00,64.4,43.2,29.26,NE,56,0.0,0.0,46,0.00,,---,0.00,VWS V14.01,2013-10-04 01:52:00,
2013-10-03 21:57:00,64.2,43.6,29.26,NE,56,0.0,0.0,47,0.00,,---,0.00,VWS V14.01,2013-10-04 01:57:00,
2013-10-03 22:02:00,64.0,44.0,29.26,NE,56,0.0,0.0,48,0.00,,---,0.00,VWS V14.01,2013-10-04 02:02:00,
2013-10-03 22:07:00,63.9,44.3,29.26,NE,56,0.0,0.0,49,0.00,,---,0.00,VWS V14.01,2013-10-04 02:07:00,
2013-10-03 22:12:00,63.9,44.3,29.26,NE,56,0.0,0.0,49,0.00,,---,0.00,VWS V14.01,2013-10-04 02:12:00,
2013-10-03 22:17:00,64.0,45.0,29.26,NE,56,0.0,0.0,50,0.00,,---,0.00,VWS V14.01,2013-10-04 02:17:00,
2013-10-03 22:22:00,64.2,45.7,29.26,NE,56,0.0,0.0,51,0.00,,---,0.00,VWS V14.01,2013-10-04 02:22:00,
2013-10-03 22:27:00,64.2,45.7,29.26,NE,56,0.0,0.0,51,0.00,,---,0.00,VWS V14.01,2013-10-04 02:27:00,
2013-10-03 22:32:00,64.4,45.9,29.26,NE,56,0.0,0.0,51,0.00,,---,0.00,VWS V14.01,2013-10-04 02:32:00,
2013-10-03 22:37:00,64.2,46.2,29.26,NE,56,0.0,0.0,52,0.00,,---,0.00,VWS V14.01,2013-10-04 02:37:00,
2013-10-03 22:42:00,64.4,46.4,29.26,NE,56,0.0,0.0,52,0.00,,---,0.00,VWS V14.01,2013-10-04 02:42:00,
2013-10-03 22:47:00,64.4,46.4,29.26,NE,56,0.0,0.0,52,0.00,,---,0.00,VWS V14.01,2013-10-04 02:47:00,
2013-10-03 22:52:00,64.4,46.4,29.26,NE,56,0.0,0.0,52,0.00,,---,0.00,VWS V14.01,2013-10-04 02:52:00,
2013-10-03 22:57:00,64.4,46.4,29.26,NE,56,0.0,0.0,52,0.00,,---,0.00,VWS V14.01,2013-10-04 02:57:00,
2013-10-03 23:02:00,64.4,46.4,29.26,NE,56,0.0,0.0,52,0.00,,---,0.00,VWS V14.01,2013-10-04 03:02:00,
2013-10-03 23:07:00,64.2,46.2,29.26,NE,56,0.0,0.0,52,0.00,,---,0.00,VWS V14.01,2013-10-04 03:07:00,
2013-10-03 23:12:00,64.2,46.2,29.26,NE,56,0.0,0.0,52,0.00,,---,0.00,VWS V14.01,2013-10-04 03:12:00,
2013-10-03 23:17:00,64.0,46.1,29.26,NE,56,0.0,0.0,52,0.00,,---,0.00,VWS V14.01,2013-10-04 03:17:00,
2013-10-03 23:22:00,63.9,45.9,29.26,NE,56,0.0,0.0,52,0.00,,---,0.00,VWS V14.01,2013-10-04 03:22:00,
2013-10-03 23:27:00,63.9,45.9,29.26,NE,56,0.0,0.0,52,0.00,,---,0.00,VWS V14.01,2013-10-04 03:27:00,
2013-10-03 23:32:00,63.9,46.4,29.26,NE,56,0.0,0.0,53,0.00,,---,0.00,VWS V14.01,2013-10-04 03:32:00,
2013-10-03 23:37:00,63.7,46.2,29.26,NE,56,0.0,0.0,53,0.00,,---,0.00,VWS V14.01,2013-10-04 03:37:00,
2013-10-03 23:42:00,63.7,46.7,29.26,NE,56,0.0,0.0,54,0.00,,---,0.00,VWS V14.01,2013-10-04 03:42:00,
2013-10-03 23:47:00,63.7,47.2,29.26,NE,56,0.0,0.0,55,0.00,,---,0.00,VWS V14.01,2013-10-04 03:47:00,
2013-10-03 23:52:00,63.7,47.2,29.26,NE,56,0.0,0.0,55,0.00,,---,0.00,VWS V14.01,2013-10-04 03:52:00,
2013-10-03 23:57:00,63.7,47.2,29.26,NE,56,0.0,0.0,55,0.00,,---,0.00,VWS V14.01,2013-10-04 03:57:00,